View from above orbital plane
|
View from above satellite
|
Ground track
|
The orbit data is extracted from the following two-line orbital elements,
1 26960U 01049D 21026.51677460 .00001013 00000-0 67166-4 0 9999
2 26960 97.8220 29.6577 0054306 4.1369 356.0297 15.08529822 52865
Epoch (UTC): | 26 January 2021 12:24:09 |
Eccentricity: | 0.0054306 |
inclination: | 97.8220° |
perigee height: | 503 km |
apogee height: | 578 km |
right ascension of ascending node: | 29.6577° |
argument of perigee: | 4.1369° |
revolutions per day: | 15.08529822 |
mean anomaly at epoch: | 356.0297° |
orbit number at epoch: | 5286 |
The dashed part of the orbit path shows where the satellite is in the earth's shadow,
|
|